GW5846 Weather Reports


time (UTC)temp
C
wind
direction
speed
KPH
gust
KPH
rain 1hr
cm
rain 24hr
cm
rain mn
cm
humidity
%
barometer
mb
20260508002400 12 8 0.0 1.6 0.00 0.03 0.03 84 1008.6
20260508001856 12 302 3.2 4.8 0.00 0.03 0.03 84 1008.3
20260508001353 13 270 1.6 1.6 0.00 0.03 0.03 84 1008.4
20260508000849 13 300 1.6 3.2 0.00 0.03 0.03 84 1008.2
20260508000346 13 174 1.6 3.2 0.00 0.03 0.03 82 1008.1
20260507235842 13 251 1.6 3.2 0.00 0.03 0.03 82 1008.0
20260507235340 13 192 3.2 4.8 0.00 0.03 0.03 82 1007.9
20260507234837 14 309 0.0 3.2 0.00 0.03 0.03 80 1007.9
20260507234333 14 240 3.2 3.2 0.00 0.03 0.03 80 1007.9
20260507233830 14 281 3.2 4.8 0.00 0.03 0.03 79 1007.8
20260507233328 15 301 1.6 3.2 0.00 0.03 0.03 79 1007.8
20260507232826 15 293 1.6 3.2 0.00 0.03 0.03 78 1007.7
20260507232322 15 281 1.6 3.2 0.00 0.03 0.03 77 1007.5
20260507231819 15 287 4.8 4.8 0.00 0.03 0.03 77 1007.5
20260507231315 15 246 1.6 3.2 0.00 0.03 0.03 76 1007.4
20260507230812 15 302 1.6 3.2 0.00 0.03 0.03 76 1007.3
20260507230309 16 288 1.6 3.2 0.00 0.03 0.03 75 1007.4
20260507225809 16 189 1.6 4.8 0.00 0.03 0.03 73 1007.2
20260507225306 15 270 1.6 4.8 0.00 0.03 0.03 74 1007.2
20260507224802 15 286 3.2 4.8 0.00 0.03 0.03 74 1007.1
20260507224259 16 233 1.6 3.2 0.00 0.03 0.03 71 1007.1
20260507223755 16 174 1.6 3.2 0.00 0.03 0.03 70 1006.8
20260507223251 16 195 3.2 11.3 0.00 0.03 0.03 71 1006.8
20260507222748 17 196 4.8 6.4 0.00 0.03 0.03 69 1006.8
20260507222244 17 240 1.6 4.8 0.00 0.03 0.03 68 1006.9
20260507221742 16 234 3.2 6.4 0.00 0.03 0.03 69 1006.8
20260507221238 17 218 1.6 4.8 0.00 0.03 0.03 67 1006.6
20260507220734 17 147 1.6 4.8 0.00 0.03 0.03 67 1006.7
20260507220233 17 290 3.2 6.4 0.00 0.03 0.03 67 1006.7
20260507215728 17 218 3.2 4.8 0.00 0.03 0.03 65 1006.4
20260507215226 17 239 4.8 12.9 0.00 0.03 0.03 65 1006.5
20260507214723 17 222 4.8 9.7 0.00 0.03 0.03 65 1006.5
20260507214220 17 207 6.4 9.7 0.00 0.03 0.03 65 1006.6
20260507213715 17 277 0.0 3.2 0.00 0.03 0.03 65 1006.7
20260507213213 17 282 3.2 4.8 0.00 0.03 0.03 65 1006.7
20260507212709 16 168 3.2 4.8 0.00 0.03 0.03 68 1006.6
20260507212206 16 199 6.4 9.7 0.00 0.03 0.03 68 1006.4
20260507211703 16 266 3.2 6.4 0.00 0.03 0.03 66 1006.6
20260507211158 16 227 1.6 3.2 0.00 0.03 0.03 70 1006.6
20260507210656 17 216 4.8 12.9 0.00 0.03 0.03 66 1006.6
20260507210152 16 247 4.8 6.4 0.00 0.03 0.03 67 1006.3
20260507205649 17 159 8.0 11.3 0.00 0.03 0.03 67 1006.5
20260507205146 17 217 6.4 11.3 0.00 0.03 0.03 67 1006.5
20260507204642 16 278 1.6 11.3 0.00 0.03 0.03 69 1006.5
20260507204140 16 184 1.6 9.7 0.00 0.03 0.03 68 1006.6
20260507203637 17 224 3.2 11.3 0.00 0.03 0.03 68 1006.7
20260507203135 17 244 6.4 6.4 0.00 0.03 0.03 65 1006.5
20260507202630 16 149 4.8 9.7 0.00 0.03 0.03 67 1006.6
20260507202127 16 165 6.4 9.7 0.00 0.03 0.03 65 1006.8
20260507201622 17 211 8.0 11.3 0.00 0.03 0.03 64 1006.7
20260507201119 17 245 3.2 11.3 0.00 0.03 0.03 66 1006.6
20260507200615 17 208 4.8 11.3 0.00 0.03 0.03 64 1006.7
20260507200111 17 273 4.8 9.7 0.00 0.03 0.03 66 1006.7
20260507195608 16 234 3.2 14.5 0.00 0.03 0.03 69 1007.0
20260507195106 17 167 4.8 12.9 0.00 0.03 0.03 68 1006.9
20260507194602 16 176 3.2 6.4 0.00 0.03 0.03 68 1006.8
20260507194057 16 178 3.2 11.3 0.00 0.03 0.03 68 1006.8
20260507193555 16 174 6.4 6.4 0.00 0.03 0.03 68 1007.0
20260507193051 17 226 8.0 14.5 0.00 0.03 0.03 65 1007.1
20260507192548 17 220 4.8 11.3 0.00 0.03 0.03 64 1007.4
20260507192045 17 276 0.0 3.2 0.00 0.03 0.03 66 1007.5
20260507191540 17 101 1.6 4.8 0.00 0.03 0.03 64 1007.4
20260507191037 16 104 0.0 4.8 0.00 0.03 0.03 67 1007.2
20260507190534 17 294 4.8 4.8 0.00 0.03 0.03 65 1007.4
20260507190033 16 213 8.0 9.7 0.00 0.03 0.03 64 1007.6
20260507185531 17 170 1.6 6.4 0.00 0.03 0.03 63 1007.6
20260507185027 17 326 3.2 9.7 0.00 0.03 0.03 64 1007.5
20260507184526 16 173 6.4 9.7 0.00 0.03 0.03 64 1007.5
20260507184024 16 237 1.6 6.4 0.00 0.03 0.03 68 1007.6
20260507183519 16 162 6.4 9.7 0.00 0.03 0.03 67 1007.6
20260507183017 16 358 0.0 1.6 0.00 0.03 0.03 64 1007.6
20260507182513 15 196 3.2 6.4 0.00 0.03 0.03 70 1007.7
20260507182009 15 200 6.4 6.4 0.00 0.03 0.03 70 1007.7
20260507181506 15 186 4.8 6.4 0.00 0.03 0.03 71 1008.0
20260507181002 15 199 3.2 11.3 0.00 0.03 0.03 74 1007.9
20260507180458 15 173 6.4 9.7 0.00 0.03 0.03 69 1008.1
20260507175954 15 100 3.2 11.3 0.00 0.03 0.03 73 1008.2
20260507175451 14 218 6.4 11.3 0.00 0.03 0.03 74 1008.3
20260507174949 14 211 8.0 11.3 0.00 0.03 0.03 73 1008.3
20260507174446 14 168 4.8 9.7 0.00 0.03 0.03 72 1008.3
20260507173943 13 180 3.2 9.7 0.00 0.03 0.03 77 1008.4
20260507173440 13 161 3.2 9.7 0.00 0.03 0.03 75 1008.6
20260507172937 13 248 4.8 9.7 0.00 0.03 0.03 75 1008.6
20260507172434 13 123 3.2 11.3 0.00 0.03 0.03 76 1008.8
20260507171930 13 155 3.2 6.4 0.00 0.03 0.03 76 1008.6
20260507171426 13 211 3.2 9.7 0.00 0.03 0.03 76 1008.7
20260507170924 13 146 4.8 6.4 0.00 0.03 0.03 75 1009.0
20260507170420 13 301 1.6 6.4 0.00 0.03 0.03 78 1009.1
20260507165916 13 190 3.2 6.4 0.00 0.03 0.03 78 1009.2
20260507165412 12 227 3.2 4.8 0.00 0.03 0.03 79 1009.1
20260507164908 12 176 3.2 9.7 0.00 0.03 0.03 77 1009.0
20260507164406 13 233 3.2 9.7 0.00 0.03 0.03 77 1009.3
20260507163903 13 203 3.2 9.7 0.00 0.03 0.03 76 1009.3
20260507163400 13 192 9.7 11.3 0.00 0.03 0.03 75 1009.2
20260507162856 14 163 8.0 11.3 0.00 0.03 0.03 74 1009.4
20260507162352 13 134 3.2 11.3 0.00 0.03 0.03 75 1009.4
20260507161849 13 215 6.4 9.7 0.00 0.03 0.03 76 1009.4
20260507161345 13 202 6.4 6.4 0.00 0.03 0.03 76 1009.7
20260507160842 13 149 4.8 6.4 0.00 0.03 0.03 75 1009.7
20260507160338 13 67 1.6 3.2 0.00 0.03 0.03 73 1009.7
20260507155835 12 43 4.8 9.7 0.00 0.03 0.03 73 1009.7
20260507155330 12 32 1.6 4.8 0.00 0.03 0.03 74 1010.0
20260507154827 12 101 1.6 6.4 0.00 0.03 0.03 73 1010.0
20260507154325 12 189 1.6 4.8 0.00 0.03 0.03 75 1010.0
20260507153821 12 132 4.8 6.4 0.00 0.03 0.03 76 1010.0
20260507153318 11 76 3.2 11.3 0.00 0.03 0.03 77 1010.1
20260507152815 11 13 1.6 11.3 0.00 0.03 0.03 77 1010.1
20260507152311 11 134 4.8 11.3 0.00 0.03 0.03 78 1010.2
20260507151806 11 47 3.2 6.4 0.00 0.03 0.03 79 1010.0
20260507151303 11 50 8.0 11.3 0.00 0.03 0.03 79 1010.0
20260507150800 11 248 6.4 9.7 0.00 0.03 0.03 79 1010.1
20260507150257 11 13 6.4 14.5 0.00 0.03 0.03 79 1010.0
20260507145753 11 61 3.2 11.3 0.00 0.03 0.03 80 1010.2
20260507145249 11 67 9.7 12.9 0.00 0.03 0.03 79 1010.2
20260507144747 11 92 3.2 6.4 0.00 0.03 0.03 81 1010.6
20260507144244 11 10 3.2 12.9 0.00 0.03 0.03 81 1010.3
20260507143740 11 89 3.2 4.8 0.00 0.03 0.03 82 1010.2
20260507143238 11 113 3.2 4.8 0.00 0.03 0.03 82 1010.3
20260507142734 11 113 6.4 9.7 0.00 0.03 0.03 82 1010.6
20260507142230 11 63 6.4 11.3 0.00 0.03 0.03 82 1010.5
20260507141727 11 58 6.4 9.7 0.00 0.03 0.03 82 1010.6
20260507141224 11 69 3.2 6.4 0.00 0.03 0.03 81 1010.7
20260507140720 11 99 4.8 6.4 0.00 0.03 0.03 81 1010.6
20260507140218 11 15 1.6 3.2 0.00 0.03 0.03 82 1010.6
20260507135714 11 351 3.2 4.8 0.00 0.03 0.03 81 1010.8
20260507135212 11 19 4.8 11.3 0.00 0.03 0.03 81 1010.7
20260507134708 11 64 3.2 6.4 0.00 0.03 0.03 81 1010.6
20260507134204 11 33 1.6 11.3 0.00 0.03 0.03 81 1011.0
20260507133700 11 39 9.7 12.9 0.00 0.03 0.03 81 1010.8
20260507133158 11 44 6.4 9.7 0.00 0.03 0.03 81 1011.1
20260507132655 11 15 3.2 9.7 0.00 0.03 0.03 82 1010.7
20260507132151 11 49 1.6 4.8 0.00 0.03 0.03 82 1010.8
20260507131648 11 52 1.6 4.8 0.00 0.03 0.03 82 1010.7
20260507131145 11 13 4.8 6.4 0.00 0.03 0.03 81 1010.8
20260507130642 11 29 3.2 4.8 0.00 0.03 0.03 82 1010.6
20260507130140 11 190 1.6 14.5 0.00 0.03 0.03 82 1010.8
20260507125638 11 41 6.4 12.9 0.00 0.03 0.03 81 1010.8
20260507125136 11 287 1.6 4.8 0.00 0.03 0.03 81 1011.0
20260507124632 11 45 4.8 9.7 0.00 0.03 0.03 81 1011.0
20260507124130 11 43 3.2 9.7 0.00 0.03 0.03 81 1010.8
20260507123628 11 83 3.2 4.8 0.00 0.03 0.03 81 1010.7
20260507123125 11 63 4.8 4.8 0.00 0.03 0.03 80 1010.8
20260507122620 11 88 0.0 3.2 0.00 0.03 0.03 81 1010.8
20260507122116 11 96 3.2 4.8 0.00 0.03 0.03 81 1010.9
20260507121612 11 325 1.6 3.2 0.00 0.03 0.03 81 1010.4
20260507121108 11 54 3.2 6.4 0.00 0.03 0.03 81 1010.5
20260507120604 11 17 1.6 3.2 0.00 0.03 0.03 81 1010.7
20260507120101 11 20 0.0 1.6 0.00 0.03 0.03 82 1010.4
20260507115557 11 25 3.2 4.8 0.00 0.03 0.03 82 1010.5
20260507115053 11 98 3.2 4.8 0.00 0.03 0.03 82 1010.5
20260507114549 11 31 1.6 6.4 0.00 0.03 0.03 82 1010.4
20260507114046 11 30 3.2 4.8 0.00 0.03 0.03 82 1010.1
20260507113543 11 345 3.2 4.8 0.00 0.03 0.03 82 1010.4
20260507113041 11 350 1.6 4.8 0.00 0.03 0.03 82 1010.2
20260507112538 11 57 1.6 1.6 0.00 0.03 0.03 81 1010.2
20260507112035 11 50 4.8 9.7 0.00 0.03 0.03 80 1010.3
20260507111532 11 32 3.2 3.2 0.00 0.03 0.03 81 1010.3
20260507111029 11 24 0.0 0.0 0.00 0.03 0.03 81 1010.4
20260507110525 11 56 1.6 4.8 0.00 0.03 0.03 81 1010.1
20260507110021 11 21 0.0 3.2 0.00 0.03 0.03 81 1010.2
20260507105519 11 94 3.2 4.8 0.00 0.03 0.03 81 1010.1
20260507105014 11 10 3.2 4.8 0.00 0.03 0.03 81 1009.8
20260507104512 11 30 4.8 9.7 0.00 0.03 0.03 81 1009.8
20260507104008 11 350 4.8 9.7 0.00 0.03 0.03 81 1009.7
20260507103505 11 351 4.8 6.4 0.00 0.03 0.03 81 1009.8
20260507103001 11 28 4.8 12.9 0.00 0.03 0.03 80 1009.8
20260507102458 11 9 1.6 6.4 0.00 0.03 0.03 82 1009.7
20260507101954 11 22 1.6 6.4 0.00 0.03 0.03 83 1010.0
20260507101449 11 113 1.6 4.8 0.00 0.03 0.03 82 1009.8
20260507100946 11 45 0.0 4.8 0.00 0.03 0.03 82 1009.9
20260507100443 11 34 0.0 6.4 0.00 0.03 0.03 83 1010.2
20260507095942 11 14 1.6 4.8 0.00 0.03 0.03 83 1009.9
20260507095439 11 100 3.2 6.4 0.00 0.03 0.03 83 1009.8
20260507094936 11 55 4.8 6.4 0.00 0.03 0.03 85 1009.8
20260507094432 11 2 1.6 4.8 0.00 0.03 0.03 86 1009.8
20260507093929 11 92 1.6 3.2 0.00 0.03 0.03 86 1009.8
20260507093427 11 76 1.6 3.2 0.00 0.03 0.03 86 1009.7
20260507092925 11 38 3.2 6.4 0.00 0.03 0.03 87 1009.5
20260507092421 11 202 1.6 6.4 0.00 0.03 0.03 88 1009.7
20260507091918 11 66 3.2 9.7 0.00 0.03 0.03 89 1009.6
20260507091414 11 102 4.8 6.4 0.00 0.03 0.03 89 1009.8
20260507090910 11 87 3.2 4.8 0.00 0.03 0.03 89 1009.7
20260507090406 11 49 4.8 12.9 0.00 0.03 0.03 88 1009.6
20260507085903 11 18 4.8 12.9 0.00 0.03 0.03 89 1009.6
20260507085400 11 357 3.2 6.4 0.00 0.03 0.03 89 1009.6
20260507084857 11 335 4.8 6.4 0.00 0.03 0.03 90 1009.2
20260507084354 11 58 3.2 6.4 0.00 0.03 0.03 90 1009.5
20260507083851 11 12 6.4 12.9 0.00 0.03 0.03 90 1009.6
20260507083347 11 21 8.0 11.3 0.00 0.03 0.03 91 1009.2
20260507082844 11 35 11.3 16.1 0.00 0.03 0.03 90 1009.2
20260507082339 11 88 6.4 16.1 0.00 0.03 0.03 90 1009.1
20260507081837 11 145 3.2 12.9 0.00 0.03 0.03 89 1009.4
20260507081332 11 44 6.4 11.3 0.00 0.03 0.03 88 1009.4
20260507080830 11 89 1.6 4.8 0.00 0.03 0.03 88 1009.5
20260507080326 11 70 3.2 9.7 0.00 0.03 0.03 88 1009.7
20260507075821 11 25 4.8 6.4 0.00 0.03 0.03 88 1009.5
20260507075318 11 84 3.2 14.5 0.00 0.03 0.03 87 1009.6
20260507074814 12 84 4.8 9.7 0.00 0.03 0.03 88 1009.5
20260507074312 12 2 4.8 14.5 0.00 0.03 0.03 88 1009.7
20260507073809 12 27 6.4 11.3 0.00 0.03 0.03 89 1009.6
20260507073305 12 50 6.4 16.1 0.00 0.03 0.03 88 1009.5
20260507072803 12 45 0.0 9.7 0.00 0.03 0.03 89 1009.4
20260507072300 12 79 6.4 14.5 0.00 0.03 0.03 89 1009.2
20260507071757 12 24 8.0 17.7 0.00 0.03 0.03 91 1009.2
20260507071254 12 59 6.4 12.9 0.00 0.03 0.03 91 1008.7
20260507070751 12 334 11.3 12.9 0.00 0.03 0.03 91 1008.6
20260507070248 12 73 9.7 16.1 0.00 0.03 0.03 91 1008.8
20260507065744 12 21 4.8 11.3 0.00 0.03 0.03 91 1009.0
20260507065241 12 27 3.2 12.9 0.00 0.03 0.03 92 1008.7
20260507064738 12 35 6.4 9.7 0.00 0.03 0.03 92 1008.6
20260507064237 12 25 6.4 12.9 0.00 0.03 0.03 91 1008.7
20260507063734 12 64 6.4 14.5 0.00 0.03 0.03 91 1008.7
20260507063231 13 341 3.2 9.7 0.00 0.03 0.03 92 1008.8
20260507062728 13 9 6.4 16.1 0.00 0.03 0.03 92 1009.0
20260507062225 13 209 3.2 9.7 0.00 0.03 0.03 92 1009.0
20260507061723 13 73 12.9 16.1 0.00 0.03 0.03 92 1009.0
20260507061221 13 76 9.7 14.5 0.00 0.03 0.03 92 1008.7
20260507060719 13 42 8.0 11.3 0.00 0.03 0.03 92 1008.7
20260507060215 13 348 4.8 14.5 0.00 0.03 0.03 92 1008.8
20260507055711 13 37 4.8 11.3 0.00 0.03 0.03 92 1009.1
20260507055207 13 32 6.4 14.5 0.00 0.03 0.03 92 1009.2
20260507054703 13 314 9.7 16.1 0.00 0.03 0.03 92 1009.0
20260507054200 13 57 19.3 25.7 0.00 0.03 0.03 92 1009.2
20260507053658 13 35 6.4 16.1 0.00 0.03 0.03 94 1009.3
20260507053156 13 62 12.9 16.1 0.00 0.03 0.03 95 1009.3
20260507052654 14 56 4.8 12.9 0.00 0.03 0.03 95 1009.3
20260507052150 14 55 6.4 14.5 0.00 0.03 0.03 95 1008.7
20260507051648 14 45 6.4 16.1 0.00 0.03 0.03 97 1008.5
20260507051144 14 87 6.4 16.1 0.00 0.03 0.03 98 1008.8
20260507050641 15 352 3.2 9.7 0.13 0.03 0.03 99 1008.7
20260507050138 15 318 4.8 12.9 0.13 0.03 0.03 99 1008.6
20260507045635 15 12 1.6 4.8 0.00 0.00 0.00 99 1008.5
20260507045131 15 277 3.2 4.8 0.00 0.00 0.00 99 1008.0
20260507044628 15 346 1.6 1.6 0.00 0.00 0.00 99 1008.1
20260507044125 15 93 0.0 3.2 0.00 0.00 0.00 99 1008.0
20260507043621 15 132 1.6 4.8 0.00 0.00 0.00 99 1007.8
20260507043118 15 155 6.4 11.3 0.00 0.00 0.00 99 1007.4
20260507042614 15 169 4.8 11.3 0.00 0.00 0.00 98 1007.6
20260507042110 15 197 3.2 4.8 0.00 0.00 0.00 97 1008.1
20260507041607 15 124 0.0 4.8 0.00 0.00 0.00 97 1008.0
20260507041103 16 32 0.0 3.2 0.00 0.00 0.00 97 1008.2
20260507040600 16 157 0.0 1.6 0.00 0.00 0.00 97 1008.4
20260507040057 16 336 0.0 0.0 0.00 0.33 0.33 96 1009.0
20260507035553 16 339 1.6 1.6 0.66 0.33 0.33 95 1009.0
20260507035049 16 222 0.0 3.2 0.79 0.33 0.33 95 1009.0
20260507034546 16 71 0.0 1.6 0.43 0.23 0.23 93 1009.2
20260507034044 16 133 0.0 1.6 0.30 0.20 0.20 92 1009.3
20260507033541 16 261 0.0 1.6 0.00 0.15 0.15 90 1009.1
20260507033038 17 91 0.0 0.0 0.00 0.15 0.15 85 1008.8
20260507032535 17 72 0.0 1.6 0.00 0.15 0.15 85 1008.7
20260507032032 17 138 1.6 3.2 0.00 0.15 0.15 84 1008.6
20260507031528 17 203 3.2 4.8 0.00 0.15 0.15 83 1008.8
20260507031025 17 86 0.0 3.2 0.00 0.15 0.15 82 1009.0
20260507030522 17 96 3.2 4.8 0.00 0.15 0.15 82 1008.4
20260507030020 17 113 1.6 3.2 0.00 0.15 0.15 81 1008.4
20260507025516 17 36 4.8 6.4 0.00 0.15 0.15 81 1008.3
20260507025014 17 359 1.6 4.8 0.00 0.15 0.15 81 1008.3
20260507024512 17 351 4.8 9.7 0.00 0.15 0.15 81 1008.4
20260507024008 17 5 3.2 3.2 0.00 0.15 0.15 82 1008.3
20260507023504 17 37 0.0 4.8 0.00 0.15 0.15 83 1008.4
20260507023002 17 342 4.8 6.4 0.00 0.15 0.15 82 1008.7
20260507022458 17 17 4.8 4.8 0.00 0.15 0.15 82 1008.4
20260507021954 17 95 0.0 4.8 0.00 0.15 0.15 82 1007.9
20260507021449 18 295 1.6 9.7 0.00 0.15 0.15 81 1008.2
20260507020947 18 71 1.6 6.4 0.00 0.15 0.15 82 1007.9
20260507020444 18 89 3.2 9.7 0.00 0.15 0.15 83 1008.0
20260507015941 18 298 3.2 3.2 0.00 0.15 0.15 85 1008.0
20260507015439 18 299 4.8 4.8 0.00 0.15 0.15 84 1007.9
20260507014936 18 25 1.6 3.2 0.00 0.15 0.15 84 1007.5
20260507014433 18 8 3.2 6.4 0.00 0.15 0.15 84 1007.5
20260507013929 18 60 1.6 4.8 0.00 0.15 0.15 84 1007.6
20260507013426 18 26 1.6 4.8 0.00 0.15 0.15 83 1007.6
20260507012923 18 341 0.0 4.8 0.00 0.15 0.15 83 1007.6
20260507012420 18 66 0.0 6.4 0.00 0.15 0.15 83 1007.3
20260507011917 18 354 4.8 11.3 0.00 0.15 0.15 84 1007.3
20260507011414 18 34 8.0 9.7 0.00 0.15 0.15 83 1007.5
20260507010913 18 32 6.4 14.5 0.00 0.15 0.15 84 1007.6
20260507010409 18 100 4.8 11.3 0.00 0.15 0.15 85 1007.6
20260507005906 18 50 6.4 12.9 0.00 0.15 0.15 85 1007.9
20260507005403 18 75 3.2 3.2 0.00 0.15 0.15 84 1008.0
20260507004900 18 25 3.2 6.4 0.00 0.15 0.15 84 1008.0
20260507004357 19 118 3.2 6.4 0.00 0.15 0.15 83 1008.2
20260507003854 20 7 1.6 9.7 0.00 0.15 0.15 80 1008.0
20260507003349 20 352 0.0 0.0 0.00 0.15 0.15 76 1007.9
20260507002844 20 306 0.0 0.0 0.00 0.15 0.15 76 1007.8